Weather History for Deming, NM

Change the Weather History Date:

Monday, March 25, 2013

  Actual Average Record
Temperature  
Mean Temperature 51 °F 53 °F  
Max Temperature 64 °F 70 °F 84 °F (2012)
Min Temperature 38 °F 36 °F 19 °F (1969)
Degree Days  
Heating Degree Days 14    
Growing Degree Days 2 (Base 50)    
Moisture  
Dew Point 1 °F    
Average Humidity 14    
Maximum Humidity 20    
Minimum Humidity 8    
Precipitation  
Precipitation 0.00 in 0.01 in 0.19 in (1997)
Month to date precipitation 0.19 0.35  
Year to date precipitation 0.48 1.55  
Sea Level Pressure  
Sea Level Pressure 29.98 in    
Wind  
Wind Speed 10 mph (East)    
Max Wind Speed 24 mph    
Max Gust Speed 30 mph    
Visibility 10 miles    
Events      
T = Trace of Precipitation, MM = Missing Value Source: NWS Daily Summary

Daily Weather History Graph

Daily Weather History Graph

Search for Another Location

Airport:

Trip Planner

Search our weather history database for the weather conditions in past years. The results will help you decide how hot, cold, wet, or windy it might be!

Date:

Astronomy

Mar. 25, 2013 Rise Set
Actual Time 7:07 AM MDT 7:26 PM MDT
Civil Twilight 6:43 AM MDT 7:50 PM MDT
Nautical Twilight 6:14 AM MDT 8:19 PM MDT
Astronomical Twilight 5:45 AM MDT 8:48 PM MDT
Moon 6:03 PM MDT (3/25) 5:48 AM MDT (3/25)
Length of Visible Light 13h 07m
Length of Day
12h 18m
Waxing Gibbous, 97% of the Moon is Illuminated
Mar 25
Waxing Gibbous
Mar 27
Full
Apr 2
Last Quarter
Apr 10
New
Apr 18
First Quarter

Hourly Weather History & Observations

Time (MDT) Temp. Windchill Dew Point Humidity Pressure Visibility Wind Dir Wind Speed Gust Speed Precip Events Conditions
12:53 AM 45.0 °F 42.6 °F 6.1 °F 20% 29.89 in 10.0 mi SE 4.6 mph - N/A   Clear
1:53 AM 45.0 °F - -0.0 °F 15% 29.89 in 10.0 mi Calm Calm - N/A   Clear
2:53 AM 46.9 °F - -2.9 °F 13% 29.90 in 10.0 mi ENE 12.7 mph - N/A   Clear
3:53 AM 45.0 °F 39.7 °F -0.9 °F 15% 29.90 in 10.0 mi ENE 10.4 mph 21.9 mph N/A   Clear
4:53 AM 45.0 °F 39.3 °F -2.0 °F 14% 29.91 in 10.0 mi ENE 11.5 mph - N/A   Clear
5:53 AM 39.9 °F 33.9 °F -2.0 °F 17% 29.95 in 10.0 mi East 9.2 mph - N/A   Clear
6:53 AM 39.0 °F 31.0 °F -0.9 °F 19% 29.98 in 10.0 mi NE 13.8 mph - N/A   Clear
7:53 AM 42.1 °F 33.9 °F -0.9 °F 17% 29.99 in 10.0 mi NE 17.3 mph - N/A   Clear
8:53 AM 48.0 °F - -0.0 °F 14% 30.00 in 10.0 mi NE 21.9 mph 29.9 mph N/A   Clear
9:53 AM 50.0 °F - -0.0 °F 13% 30.03 in 10.0 mi ENE 19.6 mph 27.6 mph N/A   Clear
10:53 AM 53.1 °F - 1.0 °F 12% 30.06 in 10.0 mi East 15.0 mph 23.0 mph N/A   Clear
11:53 AM 55.0 °F - 1.0 °F 11% 30.05 in 10.0 mi East 13.8 mph 20.7 mph N/A   Clear
12:53 PM 57.0 °F - -0.9 °F 9% 30.04 in 10.0 mi East 9.2 mph 18.4 mph N/A   Clear
1:53 PM 60.1 °F - -0.9 °F 9% 30.00 in 10.0 mi ESE 11.5 mph 17.3 mph N/A   Clear
2:53 PM 62.1 °F - 1.0 °F 9% 29.96 in 10.0 mi SE 9.2 mph - N/A   Clear
3:53 PM 64.0 °F - 1.0 °F 8% 29.94 in 10.0 mi SSE 12.7 mph 17.3 mph N/A   Clear
4:53 PM 63.0 °F - 1.0 °F 8% 29.94 in 10.0 mi Variable 6.9 mph - N/A   Clear
5:53 PM 62.1 °F - 1.9 °F 9% 29.95 in 10.0 mi SSW 6.9 mph - N/A   Clear
6:53 PM 61.0 °F - 3.0 °F 10% 29.96 in 10.0 mi South 6.9 mph - N/A   Clear
7:53 PM 57.0 °F - 1.9 °F 11% 29.97 in 10.0 mi SE 6.9 mph - N/A   Clear
8:53 PM 53.1 °F - 1.9 °F 12% 29.99 in 10.0 mi ESE 5.8 mph - N/A   Clear
9:53 PM 53.1 °F - 3.0 °F 13% 30.01 in 10.0 mi ESE 3.5 mph - N/A   Clear
10:53 PM 44.1 °F 40.8 °F 1.0 °F 17% 30.05 in 10.0 mi NNE 5.8 mph - N/A   Clear
11:53 PM 44.1 °F 40.8 °F 1.9 °F 17% 30.05 in 10.0 mi NNE 5.8 mph - N/A   Clear